sat.trackr.live / text

‹ back to catalog

DRAGRACER 2 (AUGURY)

NORAD 46955 · 2020-085AC

PAYLOAD ACTIVE UNKNOWN

§ Identity

Operator
Country
US
Launch date
2020-11-20
Launch site
RLLB
Launch vehicle
Mass (kg)
RCS (m²)

External: N2YO · Heavens-Above · Gunter

§ Orbital elements

Epoch: 2026-05-25T02:06:35.347104Z

Period
91.76 min
Inclination
97.5817°
Eccentricity
0.0004113
Mean motion
15.69304160 rev/d
Perigee alt
358.1 km
Apogee alt
363.7 km
Semi-major
6,739.0 km
B*
2.9524e-4
RAAN
339.3564°
Arg perigee
6.9667°
Mean anomaly
353.1650°
Rev number
30,824

§ Raw data

DRAGRACER 2 (AUGURY)1 46955U 20085AC  26145.08790911  .00034395  00000+0  29524-3 0  99952 46955  97.5817 339.3564 0004113   6.9667 353.1650 15.69304160308249

JSON: /api/v1/satellites/46955 · /tle

For live sub-satellite position, see the globe view (requires WebGL).

§ Visibility from observer

Set your observer location to see the next 7 days of passes ≥ 10°. The values pass through the URL so the page stays shareable.

No JS? Fill the form by hand. The geolocation button needs JavaScript.